| time (UTC) | temp F | wind direction | speed knots | gust knots | rain 1hr in | rain 24hr in | rain mn in | humidity % | barometer mb |
| 20260831131517 | 84 | 184 | 0.0 | 1.7 | 0.00 | 0.00 | 0.00 | 71 | 1017.3 |
| 20260831131012 | 84 | 221 | 0.0 | 1.7 | 0.00 | 0.00 | 0.00 | 72 | 1017.3 |
| 20260831130510 | 83 | 198 | 0.0 | 0.9 | 0.00 | 0.00 | 0.00 | 73 | 1017.2 |
| 20260831130024 | 82 | 200 | 0.0 | 1.7 | 0.00 | 0.00 | 0.00 | 74 | 1017.1 |
| 20260831125510 | 81 | 200 | 0.0 | 1.7 | 0.00 | 0.00 | 0.00 | 75 | 1017.1 |
| 20260831125013 | 81 | 192 | 0.0 | 1.7 | 0.00 | 0.00 | 0.00 | 76 | 1017.1 |
| 20260831124527 | 80 | 185 | 0.0 | 0.9 | 0.00 | 0.00 | 0.00 | 76 | 1017.0 |
| 20260831124011 | 80 | 184 | 0.0 | 0.9 | 0.00 | 0.00 | 0.00 | 77 | 1017.0 |
| 20260831123516 | 79 | 184 | 0.0 | 0.0 | 0.00 | 0.00 | 0.00 | 77 | 1016.9 |
| 20260831123036 | 79 | 184 | 0.0 | 0.0 | 0.00 | 0.00 | 0.00 | 77 | 1016.8 |
| 20260831122503 | 79 | 184 | 0.0 | 0.0 | 0.00 | 0.00 | 0.00 | 77 | 1016.7 |
| 20260831122005 | 79 | 184 | 0.0 | 0.9 | 0.00 | 0.00 | 0.00 | 77 | 1016.7 |
| 20260831121512 | 79 | 184 | 0.0 | 0.9 | 0.00 | 0.00 | 0.00 | 76 | 1016.6 |
| 20260831121006 | 79 | 184 | 0.0 | 0.9 | 0.00 | 0.00 | 0.00 | 76 | 1016.6 |
| 20260831120508 | 79 | 184 | 0.0 | 0.9 | 0.00 | 0.00 | 0.00 | 76 | 1016.6 |
| 20260831120016 | 79 | 182 | 0.0 | 0.9 | 0.00 | 0.00 | 0.00 | 75 | 1016.6 |
| 20260831115510 | 79 | 182 | 0.0 | 0.9 | 0.00 | 0.00 | 0.00 | 75 | 1016.4 |
| 20260831115012 | 79 | 181 | 0.0 | 0.9 | 0.00 | 0.00 | 0.00 | 75 | 1016.4 |
| 20260831114526 | 79 | 181 | 0.0 | 1.7 | 0.00 | 0.00 | 0.00 | 75 | 1016.4 |
| 20260831114012 | 79 | 182 | 0.0 | 1.7 | 0.00 | 0.00 | 0.00 | 74 | 1016.3 |
| 20260831113520 | 79 | 180 | 0.0 | 0.9 | 0.00 | 0.00 | 0.00 | 74 | 1016.2 |
| 20260831113032 | 79 | 180 | 0.0 | 1.7 | 0.00 | 0.00 | 0.00 | 74 | 1016.2 |
| 20260831112515 | 79 | 180 | 0.0 | 1.7 | 0.00 | 0.00 | 0.00 | 74 | 1016.2 |
| 20260831112020 | 79 | 180 | 0.0 | 2.6 | 0.00 | 0.00 | 0.00 | 74 | 1016.0 |
| 20260831111530 | 79 | 180 | 0.0 | 2.6 | 0.00 | 0.00 | 0.00 | 74 | 1015.9 |
| 20260831111003 | 79 | 180 | 0.0 | 3.5 | 0.00 | 0.00 | 0.00 | 73 | 1015.9 |
| 20260831110507 | 79 | 180 | 0.0 | 3.5 | 0.00 | 0.00 | 0.00 | 73 | 1015.8 |
| 20260831110017 | 80 | 187 | 0.0 | 0.9 | 0.00 | 0.00 | 0.00 | 73 | 1015.8 |
| 20260831105507 | 80 | 187 | 0.0 | 2.6 | 0.00 | 0.00 | 0.00 | 72 | 1015.9 |
| 20260831105008 | 80 | 188 | 0.0 | 2.6 | 0.00 | 0.00 | 0.00 | 72 | 1015.9 |
| 20260831104524 | 80 | 190 | 0.0 | 0.9 | 0.00 | 0.00 | 0.00 | 72 | 1015.8 |
| 20260831104012 | 80 | 190 | 0.0 | 0.9 | 0.00 | 0.00 | 0.00 | 72 | 1015.8 |
| 20260831103512 | 80 | 190 | 0.0 | 0.9 | 0.00 | 0.00 | 0.00 | 71 | 1015.7 |
| 20260831103028 | 80 | 190 | 0.0 | 0.9 | 0.00 | 0.00 | 0.00 | 71 | 1015.8 |
| 20260831102514 | 80 | 190 | 0.0 | 0.9 | 0.00 | 0.00 | 0.00 | 71 | 1015.7 |
| 20260831102006 | 80 | 190 | 0.0 | 0.9 | 0.00 | 0.00 | 0.00 | 70 | 1015.7 |
| 20260831101508 | 81 | 190 | 0.0 | 0.9 | 0.00 | 0.00 | 0.00 | 70 | 1015.7 |
| 20260831101004 | 81 | 190 | 0.0 | 0.9 | 0.00 | 0.00 | 0.00 | 70 | 1015.8 |
| 20260831100503 | 81 | 190 | 0.0 | 0.9 | 0.00 | 0.00 | 0.00 | 70 | 1015.7 |
| 20260831100022 | 81 | 190 | 0.0 | 2.6 | 0.00 | 0.00 | 0.00 | 70 | 1015.8 |
| 20260831095503 | 81 | 190 | 0.0 | 3.5 | 0.00 | 0.00 | 0.00 | 69 | 1015.8 |
| 20260831095008 | 81 | 186 | 0.0 | 3.5 | 0.00 | 0.00 | 0.00 | 69 | 1015.8 |
| 20260831094521 | 81 | 186 | 0.0 | 2.6 | 0.00 | 0.00 | 0.00 | 69 | 1015.8 |
| 20260831094010 | 81 | 186 | 0.0 | 4.3 | 0.00 | 0.00 | 0.00 | 69 | 1015.7 |
| 20260831093510 | 81 | 184 | 0.0 | 4.3 | 0.00 | 0.00 | 0.00 | 69 | 1015.8 |
| 20260831093031 | 82 | 201 | 0.0 | 0.0 | 0.00 | 0.00 | 0.00 | 69 | 1015.6 |
| 20260831092517 | 82 | 202 | 0.0 | 0.0 | 0.00 | 0.00 | 0.00 | 68 | 1015.6 |
| 20260831092011 | 82 | 202 | 0.0 | 0.0 | 0.00 | 0.00 | 0.00 | 67 | 1015.6 |
| 20260831091526 | 82 | 202 | 0.0 | 0.0 | 0.00 | 0.00 | 0.00 | 67 | 1015.5 |
| 20260831091003 | 82 | 202 | 0.0 | 0.0 | 0.00 | 0.00 | 0.00 | 66 | 1015.5 |
| 20260831090504 | 82 | 202 | 0.0 | 0.0 | 0.00 | 0.00 | 0.00 | 66 | 1015.5 |
| 20260831090008 | 82 | 202 | 0.0 | 0.0 | 0.00 | 0.00 | 0.00 | 65 | 1015.5 |
| 20260831085503 | 82 | 210 | 0.0 | 0.0 | 0.00 | 0.00 | 0.00 | 65 | 1015.5 |
| 20260831085008 | 82 | 211 | 0.0 | 0.0 | 0.00 | 0.00 | 0.00 | 64 | 1015.5 |
| 20260831084515 | 82 | 211 | 0.0 | 0.0 | 0.00 | 0.00 | 0.00 | 64 | 1015.5 |
| 20260831084008 | 82 | 211 | 0.0 | 0.0 | 0.00 | 0.00 | 0.00 | 63 | 1015.5 |
| 20260831083508 | 82 | 211 | 0.0 | 0.0 | 0.00 | 0.00 | 0.00 | 63 | 1015.4 |
| 20260831083036 | 83 | 211 | 0.0 | 0.0 | 0.00 | 0.00 | 0.00 | 64 | 1015.3 |
| 20260831082509 | 83 | 211 | 0.0 | 0.0 | 0.00 | 0.00 | 0.00 | 63 | 1015.3 |
| 20260831082011 | 83 | 211 | 0.0 | 0.0 | 0.00 | 0.00 | 0.00 | 63 | 1015.3 |
| 20260831081528 | 83 | 211 | 0.0 | 0.0 | 0.00 | 0.00 | 0.00 | 63 | 1015.2 |
| 20260831081011 | 83 | 211 | 0.0 | 0.0 | 0.00 | 0.00 | 0.00 | 63 | 1015.2 |
| 20260831080511 | 83 | 211 | 0.0 | 0.0 | 0.00 | 0.00 | 0.00 | 63 | 1015.2 |
| 20260831080046 | 83 | 211 | 0.0 | 0.0 | 0.00 | 0.00 | 0.00 | 63 | 1015.2 |
| 20260831075504 | 83 | 200 | 0.0 | 0.0 | 0.00 | 0.00 | 0.00 | 64 | 1015.1 |
| 20260831075003 | 83 | 197 | 0.0 | 0.0 | 0.00 | 0.00 | 0.00 | 64 | 1015.1 |
| 20260831074514 | 83 | 197 | 0.0 | 0.0 | 0.00 | 0.00 | 0.00 | 65 | 1015.1 |
| 20260831074004 | 83 | 198 | 0.0 | 0.0 | 0.00 | 0.00 | 0.00 | 65 | 1015.1 |
| 20260831073506 | 83 | 198 | 0.0 | 0.0 | 0.00 | 0.00 | 0.00 | 65 | 1015.0 |
| 20260831073019 | 83 | 198 | 0.0 | 0.0 | 0.00 | 0.00 | 0.00 | 65 | 1015.0 |
| 20260831072509 | 83 | 198 | 0.0 | 0.0 | 0.00 | 0.00 | 0.00 | 65 | 1015.0 |
| 20260831072010 | 83 | 198 | 0.0 | 0.0 | 0.00 | 0.00 | 0.00 | 65 | 1014.9 |
| 20260831071522 | 83 | 198 | 0.0 | 0.0 | 0.00 | 0.00 | 0.00 | 65 | 1014.9 |
| 20260831071010 | 83 | 198 | 0.0 | 0.0 | 0.00 | 0.00 | 0.00 | 65 | 1014.8 |
| 20260831070512 | 83 | 198 | 0.0 | 0.0 | 0.00 | 0.00 | 0.00 | 64 | 1015.0 |
| 20260831070030 | 83 | 198 | 0.0 | 0.0 | 0.00 | 0.00 | 0.00 | 64 | 1015.0 |
| 20260831065514 | 83 | 198 | 0.0 | 0.0 | 0.00 | 0.00 | 0.00 | 64 | 1015.1 |
| 20260831065014 | 83 | 198 | 0.0 | 0.0 | 0.00 | 0.00 | 0.00 | 63 | 1015.1 |
| 20260831064530 | 83 | 198 | 0.0 | 0.0 | 0.00 | 0.00 | 0.00 | 63 | 1015.2 |
| 20260831064003 | 84 | 198 | 0.0 | 0.0 | 0.00 | 0.00 | 0.00 | 63 | 1015.2 |
| 20260831063504 | 84 | 198 | 0.0 | 0.0 | 0.00 | 0.00 | 0.00 | 62 | 1015.1 |
| 20260831063012 | 84 | 198 | 0.0 | 0.0 | 0.00 | 0.00 | 0.00 | 62 | 1015.1 |
| 20260831062508 | 84 | 198 | 0.0 | 0.0 | 0.00 | 0.00 | 0.00 | 62 | 1015.1 |
| 20260831062009 | 84 | 198 | 0.0 | 0.0 | 0.00 | 0.00 | 0.00 | 62 | 1015.1 |
| 20260831061517 | 84 | 198 | 0.0 | 0.0 | 0.00 | 0.00 | 0.00 | 62 | 1015.1 |
| 20260831061010 | 84 | 198 | 0.0 | 0.0 | 0.00 | 0.00 | 0.00 | 62 | 1015.0 |
| 20260831060512 | 84 | 198 | 0.0 | 0.0 | 0.00 | 0.00 | 0.00 | 61 | 1015.1 |
| 20260831060021 | 84 | 198 | 0.0 | 0.0 | 0.00 | 0.00 | 0.00 | 61 | 1015.1 |
| 20260831055510 | 85 | 198 | 0.0 | 0.0 | 0.00 | 0.00 | 0.00 | 60 | 1015.2 |
| 20260831055012 | 85 | 198 | 0.0 | 0.0 | 0.00 | 0.00 | 0.00 | 60 | 1015.2 |
| 20260831054530 | 85 | 198 | 0.0 | 0.0 | 0.00 | 0.00 | 0.00 | 60 | 1015.2 |
| 20260831054019 | 85 | 198 | 0.0 | 0.0 | 0.00 | 0.00 | 0.00 | 59 | 1015.1 |
| 20260831053516 | 85 | 198 | 0.0 | 0.0 | 0.00 | 0.00 | 0.00 | 59 | 1015.1 |
| 20260831053008 | 85 | 198 | 0.0 | 0.0 | 0.00 | 0.00 | 0.00 | 59 | 1015.1 |
| 20260831052504 | 85 | 198 | 0.0 | 0.0 | 0.00 | 0.00 | 0.00 | 59 | 1015.0 |
| 20260831052007 | 86 | 198 | 0.0 | 0.0 | 0.00 | 0.00 | 0.00 | 59 | 1015.0 |
| 20260831051515 | 86 | 198 | 0.0 | 0.0 | 0.00 | 0.00 | 0.00 | 59 | 1015.0 |
| 20260831051013 | 86 | 198 | 0.0 | 0.0 | 0.00 | 0.00 | 0.00 | 59 | 1014.9 |
| 20260831050508 | 86 | 198 | 0.0 | 0.0 | 0.00 | 0.00 | 0.00 | 58 | 1014.9 |
| 20260831050021 | 86 | 198 | 0.0 | 0.0 | 0.00 | 0.00 | 0.00 | 58 | 1014.9 |
| 20260831045508 | 87 | 198 | 0.0 | 0.0 | 0.00 | 0.00 | 0.00 | 58 | 1014.9 |
| 20260831045011 | 87 | 198 | 0.0 | 0.0 | 0.00 | 0.00 | 0.00 | 57 | 1014.9 |
| 20260831044526 | 87 | 198 | 0.0 | 0.0 | 0.00 | 0.00 | 0.00 | 57 | 1014.9 |
| 20260831044013 | 87 | 198 | 0.0 | 0.0 | 0.00 | 0.00 | 0.00 | 56 | 1014.9 |
| 20260831043512 | 87 | 198 | 0.0 | 0.0 | 0.00 | 0.00 | 0.00 | 56 | 1014.9 |
| 20260831043029 | 87 | 198 | 0.0 | 0.0 | 0.00 | 0.00 | 0.00 | 56 | 1014.9 |
| 20260831042515 | 87 | 198 | 0.0 | 0.0 | 0.00 | 0.00 | 0.00 | 55 | 1014.9 |
| 20260831042015 | 87 | 198 | 0.0 | 0.0 | 0.00 | 0.00 | 0.00 | 55 | 1014.8 |
| 20260831041512 | 88 | 198 | 0.0 | 0.0 | 0.00 | 0.00 | 0.00 | 55 | 1014.8 |
| 20260831041019 | 88 | 198 | 0.0 | 0.0 | 0.00 | 0.00 | 0.00 | 55 | 1014.8 |
| 20260831040507 | 88 | 198 | 0.0 | 0.0 | 0.00 | 0.00 | 0.00 | 54 | 1014.7 |
| 20260831040021 | 88 | 198 | 0.0 | 0.0 | 0.00 | 0.00 | 0.00 | 54 | 1014.7 |
| 20260831035511 | 88 | 198 | 0.0 | 0.0 | 0.00 | 0.00 | 0.00 | 54 | 1014.7 |
| 20260831035009 | 88 | 198 | 0.0 | 0.0 | 0.00 | 0.00 | 0.00 | 54 | 1014.6 |
| 20260831034523 | 88 | 198 | 0.0 | 0.0 | 0.00 | 0.00 | 0.00 | 54 | 1014.5 |
| 20260831034011 | 89 | 198 | 0.0 | 0.0 | 0.00 | 0.00 | 0.00 | 54 | 1014.5 |
| 20260831033513 | 89 | 198 | 0.0 | 0.0 | 0.00 | 0.00 | 0.00 | 54 | 1014.4 |
| 20260831033027 | 89 | 198 | 0.0 | 0.0 | 0.00 | 0.00 | 0.00 | 54 | 1014.4 |
| 20260831032514 | 89 | 198 | 0.0 | 0.0 | 0.00 | 0.00 | 0.00 | 54 | 1014.5 |
| 20260831032015 | 89 | 198 | 0.0 | 0.0 | 0.00 | 0.00 | 0.00 | 54 | 1014.5 |
| 20260831031530 | 89 | 198 | 0.0 | 0.0 | 0.00 | 0.00 | 0.00 | 54 | 1014.5 |
| 20260831031018 | 89 | 198 | 0.0 | 0.0 | 0.00 | 0.00 | 0.00 | 54 | 1014.5 |
| 20260831030520 | 89 | 198 | 0.0 | 0.0 | 0.00 | 0.00 | 0.00 | 54 | 1014.5 |
| 20260831030014 | 89 | 198 | 0.0 | 0.0 | 0.00 | 0.00 | 0.00 | 53 | 1014.5 |
| 20260831025515 | 90 | 198 | 0.0 | 0.0 | 0.00 | 0.00 | 0.00 | 53 | 1014.4 |
| 20260831025008 | 90 | 198 | 0.0 | 0.0 | 0.00 | 0.00 | 0.00 | 53 | 1014.4 |
| 20260831024519 | 90 | 198 | 0.0 | 0.0 | 0.00 | 0.00 | 0.00 | 53 | 1014.3 |
| 20260831024011 | 90 | 198 | 0.0 | 0.0 | 0.00 | 0.00 | 0.00 | 52 | 1014.3 |
| 20260831023512 | 91 | 198 | 0.0 | 0.9 | 0.00 | 0.00 | 0.00 | 52 | 1014.2 |
| 20260831023023 | 91 | 198 | 0.0 | 0.9 | 0.00 | 0.00 | 0.00 | 51 | 1014.1 |
| 20260831022514 | 91 | 198 | 0.0 | 0.9 | 0.00 | 0.00 | 0.00 | 51 | 1014.1 |
| 20260831022013 | 91 | 198 | 0.0 | 1.7 | 0.00 | 0.00 | 0.00 | 50 | 1014.0 |
| 20260831021536 | 91 | 198 | 0.0 | 1.7 | 0.00 | 0.00 | 0.00 | 49 | 1014.0 |
| 20260831021014 | 91 | 198 | 0.0 | 0.0 | 0.00 | 0.00 | 0.00 | 48 | 1013.9 |
| 20260831020517 | 91 | 198 | 0.0 | 0.0 | 0.00 | 0.00 | 0.00 | 48 | 1013.8 |
| 20260831020030 | 92 | 198 | 0.0 | 0.0 | 0.00 | 0.00 | 0.00 | 47 | 1013.8 |
| 20260831015516 | 92 | 198 | 0.0 | 0.0 | 0.00 | 0.00 | 0.00 | 47 | 1013.7 |
| 20260831015014 | 92 | 198 | 0.0 | 0.0 | 0.00 | 0.00 | 0.00 | 47 | 1013.6 |
| 20260831014520 | 92 | 198 | 0.0 | 0.9 | 0.00 | 0.00 | 0.00 | 46 | 1013.5 |
| 20260831014010 | 93 | 198 | 0.0 | 0.9 | 0.00 | 0.00 | 0.00 | 46 | 1013.4 |
| 20260831013510 | 93 | 198 | 0.0 | 0.9 | 0.00 | 0.00 | 0.00 | 46 | 1013.4 |
| 20260831013025 | 93 | 198 | 0.0 | 3.5 | 0.00 | 0.00 | 0.00 | 45 | 1013.4 |
| 20260831012510 | 94 | 198 | 0.0 | 3.5 | 0.00 | 0.00 | 0.00 | 45 | 1013.3 |
| 20260831012004 | 94 | 201 | 0.0 | 0.9 | 0.00 | 0.00 | 0.00 | 45 | 1013.3 |
| 20260831011507 | 94 | 201 | 0.0 | 0.9 | 0.00 | 0.00 | 0.00 | 45 | 1013.3 |
| 20260831011002 | 95 | 202 | 0.0 | 1.7 | 0.00 | 0.00 | 0.00 | 44 | 1013.3 |
| 20260831010503 | 95 | 202 | 0.0 | 1.7 | 0.00 | 0.00 | 0.00 | 44 | 1013.2 |
| 20260831010015 | 96 | 202 | 0.0 | 0.9 | 0.00 | 0.00 | 0.00 | 44 | 1013.2 |
| 20260831005504 | 96 | 202 | 0.0 | 1.7 | 0.00 | 0.00 | 0.00 | 43 | 1013.2 |
| 20260831005006 | 96 | 202 | 0.0 | 2.6 | 0.00 | 0.00 | 0.00 | 42 | 1013.1 |
| 20260831004512 | 97 | 204 | 0.0 | 2.6 | 0.00 | 0.00 | 0.00 | 42 | 1013.1 |
| 20260831004004 | 97 | 188 | 0.0 | 2.6 | 0.00 | 0.00 | 0.00 | 40 | 1013.1 |
| 20260831003508 | 98 | 188 | 0.0 | 0.9 | 0.00 | 0.00 | 0.00 | 40 | 1013.1 |
| 20260831003012 | 98 | 186 | 0.0 | 1.7 | 0.00 | 0.00 | 0.00 | 40 | 1013.1 |
| 20260831002505 | 98 | 185 | 0.0 | 1.7 | 0.00 | 0.00 | 0.00 | 40 | 1013.1 |
| 20260831002006 | 98 | 184 | 0.0 | 2.6 | 0.00 | 0.00 | 0.00 | 39 | 1013.1 |
| 20260831001504 | 98 | 173 | 0.0 | 2.6 | 0.00 | 0.00 | 0.00 | 39 | 1013.1 |
| 20260831001003 | 99 | 173 | 0.0 | 7.0 | 0.00 | 0.00 | 0.00 | 39 | 1013.2 |
| 20260831000503 | 99 | 193 | 0.0 | 7.0 | 0.00 | 0.00 | 0.00 | 39 | 1013.2 |
| 20260831000005 | 99 | 206 | 0.0 | 7.0 | 0.00 | 0.00 | 0.00 | 38 | 1013.3 |
| 20260830235503 | 99 | 204 | 0.0 | 6.1 | 0.00 | 0.00 | 0.00 | 38 | 1013.3 |
| 20260830235002 | 99 | 188 | 1.7 | 5.2 | 0.00 | 0.00 | 0.00 | 38 | 1013.2 |
| 20260830234510 | 99 | 150 | 1.7 | 6.1 | 0.00 | 0.00 | 0.00 | 37 | 1013.3 |
| 20260830234005 | 100 | 207 | 0.0 | 6.1 | 0.00 | 0.00 | 0.00 | 37 | 1013.3 |
| 20260830233504 | 100 | 161 | 0.9 | 7.0 | 0.00 | 0.00 | 0.00 | 37 | 1013.3 |
| 20260830233019 | 100 | 158 | 1.7 | 8.7 | 0.00 | 0.00 | 0.00 | 37 | 1013.3 |
| 20260830232504 | 100 | 183 | 0.0 | 8.7 | 0.00 | 0.00 | 0.00 | 38 | 1013.4 |
| 20260830232006 | 101 | 180 | 1.7 | 7.8 | 0.00 | 0.00 | 0.00 | 37 | 1013.4 |
| 20260830231514 | 101 | 200 | 0.9 | 7.8 | 0.00 | 0.00 | 0.00 | 36 | 1013.4 |
| 20260830231005 | 101 | 182 | 0.9 | 7.8 | 0.00 | 0.00 | 0.00 | 37 | 1013.4 |
| 20260830230507 | 101 | 173 | 0.0 | 9.6 | 0.00 | 0.00 | 0.00 | 36 | 1013.5 |
| 20260830230004 | 102 | 161 | 1.7 | 9.6 | 0.00 | 0.00 | 0.00 | 36 | 1013.5 |
| 20260830225503 | 102 | 192 | 2.6 | 7.0 | 0.00 | 0.00 | 0.00 | 35 | 1013.5 |
| 20260830225005 | 102 | 169 | 0.9 | 7.0 | 0.00 | 0.00 | 0.00 | 34 | 1013.6 |
| 20260830224503 | 102 | 208 | 1.7 | 7.0 | 0.00 | 0.00 | 0.00 | 35 | 1013.6 |
| 20260830224003 | 102 | 207 | 2.6 | 7.0 | 0.00 | 0.00 | 0.00 | 36 | 1013.5 |
| 20260830223506 | 102 | 178 | 0.0 | 9.6 | 0.00 | 0.00 | 0.00 | 35 | 1013.6 |
| 20260830223012 | 102 | 214 | 0.0 | 9.6 | 0.00 | 0.00 | 0.00 | 35 | 1013.6 |
| 20260830222506 | 103 | 169 | 0.9 | 6.1 | 0.00 | 0.00 | 0.00 | 34 | 1013.6 |
| 20260830222012 | 103 | 159 | 0.9 | 6.1 | 0.00 | 0.00 | 0.00 | 34 | 1013.6 |
| 20260830221515 | 103 | 190 | 0.9 | 8.7 | 0.00 | 0.00 | 0.00 | 34 | 1013.6 |
| 20260830221007 | 103 | 170 | 2.6 | 8.7 | 0.00 | 0.00 | 0.00 | 34 | 1013.6 |
| 20260830220507 | 103 | 147 | 0.9 | 8.7 | 0.00 | 0.00 | 0.00 | 35 | 1013.6 |
| 20260830220018 | 103 | 175 | 3.5 | 12.2 | 0.00 | 0.00 | 0.00 | 34 | 1013.6 |
| 20260830215508 | 103 | 142 | 0.9 | 12.2 | 0.00 | 0.00 | 0.00 | 34 | 1013.6 |
| 20260830215010 | 103 | 179 | 0.9 | 9.6 | 0.00 | 0.00 | 0.00 | 34 | 1013.6 |
| 20260830214517 | 103 | 221 | 0.0 | 9.6 | 0.00 | 0.00 | 0.00 | 34 | 1013.6 |
| 20260830214003 | 103 | 289 | 1.7 | 7.0 | 0.00 | 0.00 | 0.00 | 33 | 1013.8 |
| 20260830213506 | 103 | 178 | 1.7 | 9.6 | 0.00 | 0.00 | 0.00 | 34 | 1013.8 |
| 20260830213008 | 103 | 201 | 1.7 | 9.6 | 0.00 | 0.00 | 0.00 | 34 | 1013.9 |
| 20260830212504 | 103 | 159 | 1.7 | 8.7 | 0.00 | 0.00 | 0.00 | 34 | 1013.9 |
| 20260830212004 | 103 | 195 | 0.0 | 5.2 | 0.00 | 0.00 | 0.00 | 34 | 1014.0 |
| 20260830211516 | 102 | 154 | 1.7 | 7.0 | 0.00 | 0.00 | 0.00 | 35 | 1014.0 |
| 20260830211008 | 102 | 159 | 0.0 | 7.8 | 0.00 | 0.00 | 0.00 | 34 | 1014.1 |
| 20260830210508 | 102 | 141 | 2.6 | 8.7 | 0.00 | 0.00 | 0.00 | 35 | 1014.2 |
| 20260830210028 | 102 | 233 | 0.9 | 8.7 | 0.00 | 0.00 | 0.00 | 35 | 1014.2 |
| 20260830205513 | 102 | 146 | 3.5 | 12.2 | 0.00 | 0.00 | 0.00 | 34 | 1014.2 |
| 20260830205006 | 102 | 169 | 4.3 | 12.2 | 0.00 | 0.00 | 0.00 | 35 | 1014.3 |
| 20260830204527 | 102 | 161 | 1.7 | 7.8 | 0.00 | 0.00 | 0.00 | 36 | 1014.3 |
| 20260830204008 | 101 | 190 | 2.6 | 8.7 | 0.00 | 0.00 | 0.00 | 37 | 1014.3 |
| 20260830203508 | 101 | 135 | 2.6 | 9.6 | 0.00 | 0.00 | 0.00 | 38 | 1014.4 |
| 20260830203025 | 101 | 180 | 0.9 | 9.6 | 0.00 | 0.00 | 0.00 | 38 | 1014.5 |
| 20260830202504 | 101 | 162 | 4.3 | 10.4 | 0.00 | 0.00 | 0.00 | 37 | 1014.5 |
| 20260830202004 | 101 | 140 | 4.3 | 11.3 | 0.00 | 0.00 | 0.00 | 37 | 1014.7 |
| 20260830201508 | 101 | 155 | 4.3 | 11.3 | 0.00 | 0.00 | 0.00 | 37 | 1014.7 |
| 20260830201004 | 101 | 154 | 4.3 | 11.3 | 0.00 | 0.00 | 0.00 | 37 | 1014.9 |
| 20260830200504 | 102 | 157 | 1.7 | 7.8 | 0.00 | 0.00 | 0.00 | 37 | 1015.1 |
| 20260830200015 | 101 | 163 | 2.6 | 7.8 | 0.00 | 0.00 | 0.00 | 37 | 1015.2 |
| 20260830195506 | 101 | 156 | 0.9 | 8.7 | 0.00 | 0.00 | 0.00 | 38 | 1015.2 |
| 20260830195008 | 101 | 177 | 0.0 | 10.4 | 0.00 | 0.00 | 0.00 | 39 | 1015.3 |
| 20260830194523 | 101 | 163 | 5.2 | 13.9 | 0.00 | 0.00 | 0.00 | 39 | 1015.4 |
| 20260830194007 | 100 | 146 | 4.3 | 13.9 | 0.00 | 0.00 | 0.00 | 39 | 1015.4 |
| 20260830193510 | 101 | 118 | 4.3 | 12.2 | 0.00 | 0.00 | 0.00 | 39 | 1015.4 |
| 20260830193018 | 101 | 107 | 3.5 | 9.6 | 0.00 | 0.00 | 0.00 | 40 | 1015.4 |
| 20260830192508 | 100 | 166 | 2.6 | 11.3 | 0.00 | 0.00 | 0.00 | 40 | 1015.5 |
| 20260830192008 | 100 | 157 | 3.5 | 13.0 | 0.00 | 0.00 | 0.00 | 40 | 1015.5 |
| 20260830191524 | 100 | 205 | 1.7 | 13.0 | 0.00 | 0.00 | 0.00 | 41 | 1015.6 |
| 20260830191003 | 100 | 150 | 3.5 | 12.2 | 0.00 | 0.00 | 0.00 | 41 | 1015.7 |
| 20260830190503 | 100 | 190 | 3.5 | 12.2 | 0.00 | 0.00 | 0.00 | 41 | 1015.7 |
| 20260830190011 | 100 | 166 | 3.5 | 12.2 | 0.00 | 0.00 | 0.00 | 42 | 1015.7 |
| 20260830185514 | 100 | 130 | 3.5 | 15.6 | 0.00 | 0.00 | 0.00 | 43 | 1015.8 |
| 20260830185008 | 100 | 148 | 1.7 | 15.6 | 0.00 | 0.00 | 0.00 | 43 | 1015.8 |
| 20260830184518 | 100 | 118 | 4.3 | 13.0 | 0.00 | 0.00 | 0.00 | 43 | 1015.8 |
| 20260830184007 | 100 | 169 | 4.3 | 13.9 | 0.00 | 0.00 | 0.00 | 43 | 1015.8 |
| 20260830183510 | 100 | 159 | 2.6 | 13.9 | 0.00 | 0.00 | 0.00 | 43 | 1015.9 |
| 20260830183023 | 100 | 138 | 3.5 | 10.4 | 0.00 | 0.00 | 0.00 | 42 | 1015.9 |
| 20260830182512 | 100 | 164 | 3.5 | 11.3 | 0.00 | 0.00 | 0.00 | 44 | 1016.0 |
| 20260830182011 | 100 | 149 | 3.5 | 11.3 | 0.00 | 0.00 | 0.00 | 43 | 1016.1 |
| 20260830181524 | 100 | 147 | 3.5 | 8.7 | 0.00 | 0.00 | 0.00 | 44 | 1016.2 |
| 20260830181009 | 100 | 179 | 0.9 | 7.8 | 0.00 | 0.00 | 0.00 | 43 | 1016.2 |
| 20260830180512 | 99 | 193 | 0.9 | 7.8 | 0.00 | 0.00 | 0.00 | 44 | 1016.3 |
| 20260830180025 | 99 | 198 | 2.6 | 9.6 | 0.00 | 0.00 | 0.00 | 46 | 1016.4 |
| 20260830175505 | 100 | 159 | 3.5 | 9.6 | 0.00 | 0.00 | 0.00 | 45 | 1016.5 |
| 20260830175003 | 100 | 155 | 2.6 | 10.4 | 0.00 | 0.00 | 0.00 | 44 | 1016.5 |
| 20260830174514 | 100 | 200 | 0.0 | 10.4 | 0.00 | 0.00 | 0.00 | 46 | 1016.6 |
| 20260830174004 | 100 | 178 | 1.7 | 8.7 | 0.00 | 0.00 | 0.00 | 46 | 1016.6 |
| 20260830173510 | 100 | 198 | 0.9 | 7.0 | 0.00 | 0.00 | 0.00 | 45 | 1016.7 |
| 20260830173018 | 100 | 156 | 3.5 | 7.0 | 0.00 | 0.00 | 0.00 | 46 | 1016.8 |
| 20260830172514 | 99 | 198 | 0.9 | 8.7 | 0.00 | 0.00 | 0.00 | 47 | 1016.9 |
| 20260830172011 | 99 | 177 | 0.9 | 10.4 | 0.00 | 0.00 | 0.00 | 48 | 1017.0 |
| 20260830171526 | 99 | 194 | 0.9 | 10.4 | 0.00 | 0.00 | 0.00 | 46 | 1017.1 |
| 20260830171012 | 99 | 163 | 1.7 | 7.8 | 0.00 | 0.00 | 0.00 | 46 | 1017.1 |
| 20260830170510 | 99 | 204 | 0.9 | 7.0 | 0.00 | 0.00 | 0.00 | 47 | 1017.2 |
| 20260830170025 | 98 | 246 | 0.9 | 7.8 | 0.00 | 0.00 | 0.00 | 47 | 1017.2 |
| 20260830165510 | 98 | 176 | 2.6 | 7.8 | 0.00 | 0.00 | 0.00 | 47 | 1017.3 |
| 20260830165010 | 98 | 151 | 2.6 | 7.8 | 0.00 | 0.00 | 0.00 | 46 | 1017.4 |
| 20260830164549 | 99 | 200 | 0.0 | 4.3 | 0.00 | 0.00 | 0.00 | 47 | 1017.4 |
| 20260830164007 | 98 | 244 | 0.0 | 4.3 | 0.00 | 0.00 | 0.00 | 48 | 1017.4 |
| 20260830163504 | 98 | 202 | 0.0 | 9.6 | 0.00 | 0.00 | 0.00 | 48 | 1017.4 |
| 20260830163018 | 98 | 143 | 0.0 | 9.6 | 0.00 | 0.00 | 0.00 | 47 | 1017.5 |
| 20260830162508 | 98 | 236 | 0.9 | 8.7 | 0.00 | 0.00 | 0.00 | 48 | 1017.5 |
| 20260830162008 | 98 | 153 | 0.0 | 8.7 | 0.00 | 0.00 | 0.00 | 49 | 1017.6 |
| 20260830161518 | 97 | 205 | 0.0 | 6.1 | 0.00 | 0.00 | 0.00 | 49 | 1017.6 |
| 20260830161011 | 97 | 198 | 0.9 | 6.1 | 0.00 | 0.00 | 0.00 | 50 | 1017.6 |
| 20260830160511 | 96 | 198 | 0.9 | 7.0 | 0.00 | 0.00 | 0.00 | 51 | 1017.5 |
| 20260830160027 | 96 | 252 | 0.9 | 7.0 | 0.00 | 0.00 | 0.00 | 52 | 1017.5 |
| 20260830155503 | 96 | 257 | 0.9 | 6.1 | 0.00 | 0.00 | 0.00 | 52 | 1017.5 |
| 20260830155003 | 96 | 190 | 0.0 | 7.0 | 0.00 | 0.00 | 0.00 | 54 | 1017.4 |
| 20260830154507 | 96 | 172 | 0.9 | 7.0 | 0.00 | 0.00 | 0.00 | 56 | 1017.5 |
| 20260830154004 | 96 | 254 | 2.6 | 7.0 | 0.00 | 0.00 | 0.00 | 53 | 1017.5 |
| 20260830153504 | 95 | 230 | 0.0 | 4.3 | 0.00 | 0.00 | 0.00 | 55 | 1017.5 |
| 20260830153011 | 95 | 209 | 0.0 | 7.0 | 0.00 | 0.00 | 0.00 | 56 | 1017.5 |
| 20260830152505 | 94 | 203 | 0.0 | 7.0 | 0.00 | 0.00 | 0.00 | 57 | 1017.6 |
| 20260830152007 | 94 | 252 | 0.0 | 3.5 | 0.00 | 0.00 | 0.00 | 57 | 1017.6 |
| 20260830151516 | 93 | 178 | 0.0 | 3.5 | 0.00 | 0.00 | 0.00 | 58 | 1017.6 |
| 20260830151008 | 93 | 223 | 0.0 | 4.3 | 0.00 | 0.00 | 0.00 | 59 | 1017.7 |
| 20260830150511 | 93 | 184 | 0.0 | 4.3 | 0.00 | 0.00 | 0.00 | 59 | 1017.6 |
| 20260830150023 | 92 | 220 | 0.0 | 2.6 | 0.00 | 0.00 | 0.00 | 60 | 1017.6 |
| 20260830145514 | 92 | 209 | 0.0 | 2.6 | 0.00 | 0.00 | 0.00 | 61 | 1017.6 |
| 20260830145011 | 91 | 208 | 0.0 | 5.2 | 0.00 | 0.00 | 0.00 | 61 | 1017.7 |
| 20260830144528 | 91 | 200 | 0.9 | 5.2 | 0.00 | 0.00 | 0.00 | 61 | 1017.6 |
| 20260830144003 | 91 | 185 | 0.9 | 5.2 | 0.00 | 0.00 | 0.00 | 61 | 1017.6 |
| 20260830143504 | 91 | 170 | 0.9 | 4.3 | 0.00 | 0.00 | 0.00 | 62 | 1017.5 |
| 20260830143008 | 91 | 198 | 0.0 | 3.5 | 0.00 | 0.00 | 0.00 | 62 | 1017.5 |
| 20260830142504 | 91 | 178 | 0.0 | 4.3 | 0.00 | 0.00 | 0.00 | 62 | 1017.7 |
| 20260830142004 | 90 | 152 | 0.0 | 3.5 | 0.00 | 0.00 | 0.00 | 63 | 1017.8 |
| 20260830141531 | 90 | 219 | 0.0 | 1.7 | 0.00 | 0.00 | 0.00 | 64 | 1017.8 |
| 20260830141005 | 90 | 220 | 0.0 | 1.7 | 0.00 | 0.00 | 0.00 | 65 | 1017.7 |
| 20260830140506 | 89 | 200 | 0.0 | 1.7 | 0.00 | 0.00 | 0.00 | 64 | 1017.7 |
| 20260830140020 | 89 | 219 | 0.0 | 4.3 | 0.00 | 0.00 | 0.00 | 65 | 1017.6 |
| 20260830135508 | 88 | 234 | 0.0 | 4.3 | 0.00 | 0.00 | 0.00 | 66 | 1017.6 |
| 20260830135012 | 88 | 203 | 0.0 | 1.7 | 0.00 | 0.00 | 0.00 | 67 | 1017.5 |
| 20260830134535 | 88 | 205 | 0.0 | 2.6 | 0.00 | 0.00 | 0.00 | 67 | 1017.6 |
| 20260830134017 | 87 | 205 | 0.0 | 3.5 | 0.00 | 0.00 | 0.00 | 68 | 1017.6 |
| 20260830133513 | 86 | 212 | 0.0 | 5.2 | 0.00 | 0.00 | 0.00 | 69 | 1017.6 |
| 20260830133029 | 86 | 200 | 0.0 | 5.2 | 0.00 | 0.00 | 0.00 | 69 | 1017.4 |
| 20260830132506 | 85 | 200 | 0.0 | 2.6 | 0.00 | 0.00 | 0.00 | 70 | 1017.4 |
| 20260830132005 | 85 | 215 | 0.0 | 4.3 | 0.00 | 0.00 | 0.00 | 70 | 1017.3 |